Location: El Águila
(10.4167°N, 66.7167°W)
Time: 05:40:44
(UTC+00:00)

Cosmos 540 Rocket - Pass Details

Date: 02 October 2022
Orbit: 739 x 753 km, 74.1° (Epoch: 04 December)

Event Time Altitude Azimuth Distance (km) Brightness Sun altitude
Rises 22:50:18 0° 3° (N) 3,163 6.6 -9.1°
Reaches altitude 10° 22:52:53 10° 14° (NNE) 2,242 5.8 -9.7°
Maximum altitude 22:57:21 31° 76° (ENE) 1,278 4.1 -10.8°
Drops below altitude 10° 23:01:50 10° 138° (SE) 2,250 5.5 -11.9°
Sets 23:04:25 0° 148° (SSE) 3,175 6.4 -12.6°
